Location: Franzen
(48.6167°N, 15.3833°E)
Time: 10:50:19
(UTC+00:00)

Cosmos 1782 - Pass Details

Date: 22 April 2021
Orbit: 535 x 552 km, 82.5° (Epoch: 16 May)

Event Time Altitude Azimuth Distance (km) Brightness Sun altitude
Exits shadow 22:28:36 37° 357° (N) 878 4.3 -28.5°
Drops below altitude 10° 22:31:07 10° 6° (N) 1,837 6.4 -28.6°
Sets 22:33:18 0° 9° (N) 2,734 7.5 -28.6°
